Boone, NC

4:24 PM EDT on April 30, 2017 (GMT -0400)
Boone

Weather History for KTNB - January, 2014

Change the Weather History Date:

Wednesday, January 8, 2014

  Actual Average (KGEV) Record (KGEV)
Temperature  
Mean Temperature 23 °F -  
Max Temperature 39 °F 42 °F 62 °F (2008)
Min Temperature 7 °F 22 °F -6 °F (1970)
Degree Days  
Heating Degree Days 42    
Moisture  
Dew Point 9 °F    
Average Humidity 60    
Maximum Humidity 91    
Minimum Humidity 34    
Precipitation  
Precipitation 0.00 in - - ()
Sea Level Pressure  
Sea Level Pressure 30.36 in    
Wind  
Wind Speed 2 mph (WNW)    
Max Wind Speed 10 mph    
Max Gust Speed -    
Visibility 10 miles    
Events      
Averages and records for this station are not official NWS values.
T = Trace of Precipitation, MM = Missing Value Source: NWS Daily Summary

Daily Weather History Graph

Daily Weather History Graph

Search for Another Location

Airport or City:

Trip Planner

Search our weather history database for the weather conditions in past years. The results will help you decide how hot, cold, wet, or windy it might be!

Date:

Astronomy

Jan. 08, 2014 Rise Set
Actual Time 7:38 AM EST 5:28 PM EST
Civil Twilight 7:09 AM EST 5:57 PM EST
Nautical Twilight 6:38 AM EST 6:29 PM EST
Astronomical Twilight 6:07 AM EST 7:00 PM EST
Moon 12:15 PM EST (1/8) 12:48 AM EST (1/8)
Length of Visible Light 10h 47m
Length of Day
9h 50m
First Quarter, 56% of the Moon is Illuminated
Jan 8
First Quarter
Jan 15
Full
Jan 24
Last Quarter
Jan 30
New
Feb 6
First Quarter

Hourly Weather History & Observations

Time (EST) Temp. Windchill Dew Point Humidity Pressure Visibility Wind Dir Wind Speed Gust Speed Precip Events Conditions
12:15 AM 7.7 °F - 1.0 °F 74% 30.27 in 10.0 mi Calm Calm - N/A   Clear
12:35 AM 8.2 °F - 0.9 °F 72% 30.26 in 10.0 mi Calm Calm - N/A   Clear
12:55 AM 8.2 °F 1.6 °F 0.3 °F 70% 30.26 in 10.0 mi West 3.5 mph - N/A   Clear
1:15 AM 8.4 °F - 0.1 °F 69% 30.26 in 10.0 mi Calm Calm - N/A   Clear
1:35 AM 8.6 °F - 0.1 °F 68% 30.27 in 10.0 mi Calm Calm - N/A   Clear
1:55 AM 8.1 °F - 1.6 °F 75% 30.27 in 10.0 mi Calm Calm - N/A   Clear
2:15 AM 8.8 °F - 0.9 °F 70% 30.28 in 10.0 mi Calm Calm - N/A   Clear
2:35 AM 8.6 °F 2.0 °F 1.6 °F 73% 30.29 in 10.0 mi WNW 3.5 mph - N/A   Clear
2:55 AM 8.2 °F 1.6 °F 0.3 °F 70% 30.30 in 10.0 mi WNW 3.5 mph - N/A   Clear
3:15 AM 9.5 °F 1.2 °F 0.1 °F 66% 30.31 in 10.0 mi West 4.6 mph - N/A   Clear
3:35 AM 10.4 °F 4.0 °F -1.1 °F 60% 30.32 in 10.0 mi West 3.5 mph - N/A   Clear
3:55 AM 9.5 °F 3.0 °F -0.4 °F 64% 30.32 in 10.0 mi WNW 3.5 mph - N/A   Clear
4:15 AM 9.0 °F - 0.1 °F 67% 30.32 in 10.0 mi Calm Calm - N/A   Clear
4:35 AM 9.0 °F - -0.2 °F 66% 30.32 in 10.0 mi Calm Calm - N/A   Clear
4:55 AM 9.0 °F - -0.4 °F 66% 30.32 in 10.0 mi Calm Calm - N/A   Clear
5:15 AM 8.6 °F - 0.1 °F 68% 30.33 in 10.0 mi Calm Calm - N/A   Clear
5:35 AM 7.7 °F - 0.9 °F 74% 30.34 in 10.0 mi Calm Calm - N/A   Clear
5:55 AM 9.3 °F - 2.8 °F 75% 30.33 in 10.0 mi Calm Calm - N/A   Clear
6:15 AM 10.4 °F - 3.7 °F 74% 30.33 in 10.0 mi Calm Calm - N/A   Clear
6:35 AM 8.4 °F - 3.6 °F 81% 30.34 in 10.0 mi Calm Calm - N/A   Clear
6:55 AM 9.1 °F - 4.1 °F 80% 30.35 in 10.0 mi Calm Calm - N/A   Clear
7:15 AM 10.4 °F - 4.6 °F 78% 30.36 in 10.0 mi Calm Calm - N/A   Clear
7:35 AM 9.3 °F - 4.3 °F 80% 30.36 in 10.0 mi Calm Calm - N/A   Clear
7:55 AM 9.3 °F - 4.6 °F 81% 30.37 in 10.0 mi Calm Calm - N/A   Clear
8:15 AM 10.8 °F - 5.4 °F 79% 30.38 in 10.0 mi Calm Calm - N/A   Clear
8:35 AM 12.6 °F - 6.6 °F 77% 30.39 in 10.0 mi Calm Calm - N/A   Clear
8:55 AM 14.4 °F - 7.3 °F 74% 30.39 in 10.0 mi Calm Calm - N/A   Clear
9:15 AM 16.9 °F - 8.4 °F 69% 30.40 in 10.0 mi Calm Calm - N/A   Clear
9:35 AM 20.1 °F 13.6 °F 8.8 °F 62% 30.41 in 10.0 mi WNW 4.6 mph - N/A   Clear
9:55 AM 26.1 °F 19.4 °F 5.4 °F 41% 30.42 in 10.0 mi West 5.8 mph - N/A   Clear
10:15 AM 27.9 °F 19.1 °F 5.4 °F 38% 30.42 in 10.0 mi WNW 9.2 mph - N/A   Clear
10:35 AM 30.2 °F 21.3 °F 5.2 °F 35% 30.41 in 10.0 mi WNW 10.4 mph - N/A   Clear
10:55 AM 31.6 °F 23.7 °F 6.8 °F 35% 30.41 in 10.0 mi NW 9.2 mph - N/A   Clear
11:15 AM 31.8 °F 23.3 °F 6.8 °F 35% 30.40 in 10.0 mi WNW 10.4 mph - N/A   Clear
11:35 AM 32.2 °F 25.0 °F 7.5 °F 36% 30.40 in 10.0 mi WNW 8.1 mph - N/A   Clear
11:55 AM 33.1 °F 26.1 °F 8.2 °F 35% 30.39 in 10.0 mi WNW 8.1 mph - N/A   Clear
12:15 PM 33.8 °F 26.4 °F 8.2 °F 34% 30.38 in 10.0 mi WNW 9.2 mph - N/A   Clear
12:35 PM 34.7 °F 28.1 °F 9.1 °F 35% 30.37 in 10.0 mi WNW 8.1 mph - N/A   Clear
12:55 PM 35.4 °F 30.5 °F 9.9 °F 35% 30.36 in 10.0 mi West 5.8 mph - N/A   Clear
1:15 PM 36.5 °F 31.0 °F 10.4 °F 34% 30.35 in 10.0 mi WNW 6.9 mph - N/A   Clear
1:35 PM 36.7 °F 30.5 °F 10.6 °F 34% 30.35 in 10.0 mi NW 8.1 mph - N/A   Clear
1:55 PM 37.6 °F 32.3 °F 12.0 °F 35% 30.34 in 10.0 mi WNW 6.9 mph - N/A   Clear
2:15 PM 37.6 °F - 11.5 °F 34% 30.34 in 10.0 mi Calm Calm - N/A   Clear
2:35 PM 38.1 °F - 12.0 °F 34% 30.34 in 10.0 mi Calm Calm - N/A   Clear
2:55 PM 39.2 °F 37.0 °F 12.6 °F 34% 30.34 in 10.0 mi WSW 3.5 mph - N/A   Clear
3:15 PM 39.4 °F 36.1 °F 13.3 °F 34% 30.36 in 10.0 mi West 4.6 mph - N/A   Clear
3:35 PM 39.2 °F 35.0 °F 13.1 °F 34% 30.37 in 10.0 mi WNW 5.8 mph - N/A   Clear
3:55 PM 38.5 °F 34.1 °F 13.6 °F 36% 30.37 in 10.0 mi West 5.8 mph - N/A   Clear
4:15 PM 37.8 °F 34.2 °F 13.3 °F 37% 30.37 in 10.0 mi West 4.6 mph - N/A   Clear
4:35 PM 37.6 °F 34.0 °F 13.5 °F 37% 30.37 in 10.0 mi West 4.6 mph - N/A   Clear
4:55 PM 37.4 °F 33.8 °F 14.5 °F 39% 30.37 in 10.0 mi West 4.6 mph - N/A   Clear
5:15 PM 35.1 °F 32.2 °F 17.4 °F 49% 30.37 in 10.0 mi SSW 3.5 mph - N/A   Clear
5:35 PM 32.7 °F - 17.2 °F 53% 30.38 in 10.0 mi Calm Calm - N/A   Clear
5:55 PM 32.0 °F - 16.7 °F 53% 30.38 in 10.0 mi Calm Calm - N/A   Clear
6:15 PM 31.5 °F - 17.8 °F 57% 30.38 in 10.0 mi Calm Calm - N/A   Clear
6:35 PM 29.7 °F - 17.4 °F 60% 30.39 in 10.0 mi Calm Calm - N/A   Clear
6:55 PM 29.5 °F - 18.1 °F 63% 30.39 in 10.0 mi Calm Calm - N/A   Clear
7:15 PM 29.1 °F - 18.5 °F 65% 30.39 in 10.0 mi Calm Calm - N/A   Clear
7:35 PM 28.9 °F - 18.1 °F 64% 30.40 in 10.0 mi Calm Calm - N/A   Clear
7:55 PM 28.2 °F - 17.4 °F 64% 30.40 in 10.0 mi Calm Calm - N/A   Clear
8:15 PM 27.3 °F - 17.8 °F 67% 30.40 in 10.0 mi Calm Calm - N/A   Clear
8:35 PM 26.4 °F - 18.5 °F 72% 30.40 in 10.0 mi Calm Calm - N/A   Clear
8:55 PM 26.4 °F - 19.0 °F 74% 30.40 in 10.0 mi Calm Calm - N/A   Clear
9:15 PM 25.5 °F - 18.7 °F 75% 30.41 in 10.0 mi Calm Calm - N/A   Clear
9:35 PM 25.0 °F - 18.5 °F 76% 30.41 in 10.0 mi Calm Calm - N/A   Clear
9:55 PM 23.0 °F - 18.1 °F 82% 30.41 in 10.0 mi Calm Calm - N/A   Clear
10:15 PM 23.7 °F - 18.3 °F 80% 30.40 in 10.0 mi Calm Calm - N/A   Clear
10:35 PM 22.8 °F - 18.5 °F 83% 30.40 in 10.0 mi Calm Calm - N/A   Clear
10:55 PM 22.1 °F - 18.1 °F 85% 30.41 in 10.0 mi Calm Calm - N/A   Clear
11:15 PM 22.1 °F - 18.3 °F 85% 30.40 in 10.0 mi Calm Calm - N/A   Clear
11:35 PM 22.1 °F - 18.0 °F 84% 30.40 in 10.0 mi Calm Calm - N/A   Clear
11:55 PM 21.6 °F - 19.2 °F 91% 30.40 in 10.0 mi Calm Calm - N/A   Clear